contact:dominique.lefevre@mio.osupytheas.fr, maurice.libes@osupytheas.fr, didier.mallarino@osupytheas.fr
Project:EMSO http://www.emso-fr.org/EMSO-France
Depth: 2436.0 m
Title:EMSO Ligure Ouest : Data MII capteur AQUADOPP
Date,Latitude,Longitude,X_East,Y_North,Z_Up,Amplitude_X,Amplitude_Y,Amplitude_Z,Batterie,SoundSpeed,Heading,Pitch,Roll,Pressure,TIS,Speed,Direction
, degrees North, degrees East, m.s-1, m.s-1,m.s-1, 1, 1, 1, Volt, m.s-1, degree, degree, degree, dbar, degree_C, m.s-1, degree
2023-05-08T00:04:03,42.805,6.029,0.04,0.03,-0.021,102.0,105.0,101.0,13.4,1505.2,324.6,-0.7,1.9,2471.488,13.28,0.05,53.1
2023-05-08T00:07:03,42.805,6.029,0.044,0.018,-0.012,102.0,104.0,102.0,13.4,1505.2,328.8,-0.8,1.8,2471.479,13.28,0.047,67.8
2023-05-08T00:10:03,42.805,6.029,0.066,0.019,0.01,101.0,105.0,101.0,13.4,1505.2,321.7,-0.8,1.8,2471.447,13.28,0.068,73.9
2023-05-08T00:13:03,42.805,6.029,0.03,0.005,-0.004,101.0,104.0,100.0,13.4,1505.2,341.9,-0.7,1.8,2471.427,13.28,0.03,80.5
2023-05-08T00:16:03,42.805,6.029,0.029,0.025,-0.015,101.0,105.0,102.0,13.4,1505.2,327.8,-0.8,1.9,2471.438,13.28,0.038,49.2
2023-05-08T00:19:03,42.805,6.029,0.039,0.018,0.0,102.0,103.0,101.0,13.4,1505.2,331.7,-0.8,1.8,2471.481,13.29,0.042,65.2
2023-05-08T00:22:03,42.805,6.029,0.042,0.005,-0.028,102.0,105.0,101.0,13.4,1505.2,335.6,-0.8,1.8,2471.452,13.29,0.042,83.2
2023-05-08T00:25:03,42.805,6.029,0.055,0.026,0.014,102.0,104.0,101.0,13.4,1505.2,327.0,-0.8,1.8,2471.434,13.29,0.06,64.7
2023-05-08T00:28:03,42.805,6.029,0.028,0.007,-0.032,101.0,104.0,102.0,13.4,1505.2,344.8,-0.8,1.8,2471.45,13.29,0.028,76.0
2023-05-08T00:31:03,42.805,6.029,0.046,0.036,0.026,104.0,105.0,100.0,13.3,1505.2,329.8,-0.8,1.8,2471.431,13.29,0.058,52.0
2023-05-08T00:34:03,42.805,6.029,0.031,0.02,-0.024,101.0,104.0,100.0,13.4,1505.2,324.4,-0.8,1.8,2471.42,13.29,0.036,57.2
2023-05-08T00:37:03,42.805,6.029,0.075,-0.016,0.015,102.0,106.0,101.0,13.4,1505.2,344.4,-0.8,1.8,2471.43,13.29,0.076,102.0
2023-05-08T00:40:03,42.805,6.029,0.051,0.0,-0.02,103.0,103.0,100.0,13.3,1505.2,318.8,-0.8,1.8,2471.407,13.29,0.051,90.0
2023-05-08T00:43:03,42.805,6.029,0.049,-0.004,0.023,101.0,103.0,101.0,13.4,1505.2,333.0,-0.8,1.8,2471.445,13.29,0.049,94.7
2023-05-08T00:46:03,42.805,6.029,0.044,0.014,0.011,100.0,105.0,101.0,13.4,1505.2,325.0,-0.7,1.8,2471.415,13.29,0.046,72.4
2023-05-08T00:49:03,42.805,6.029,0.052,0.026,-0.004,102.0,104.0,102.0,13.3,1505.2,323.3,-0.8,1.8,2471.414,13.29,0.058,63.4
2023-05-08T00:52:03,42.805,6.029,0.025,0.017,0.023,102.0,105.0,101.0,13.4,1505.2,345.4,-0.8,1.8,2471.407,13.29,0.03,55.8
2023-05-08T00:55:03,42.805,6.029,0.012,0.011,-0.022,103.0,104.0,101.0,13.4,1505.2,320.4,-0.8,1.8,2471.426,13.29,0.016,47.5
2023-05-08T00:58:03,42.805,6.029,0.03,-0.002,-0.009,101.0,105.0,101.0,13.4,1505.2,333.9,-0.7,1.8,2471.407,13.29,0.03,93.8
2023-05-08T01:04:03,42.805,6.029,0.039,0.019,-0.02,104.0,107.0,103.0,13.4,1505.2,323.3,-0.7,1.8,2471.432,13.28,0.043,64.0
2023-05-08T01:07:03,42.805,6.029,0.042,0.021,-0.012,102.0,104.0,102.0,13.3,1505.2,333.0,-0.8,1.8,2471.455,13.28,0.046,63.4
2023-05-08T01:10:03,42.805,6.029,0.034,0.015,0.0,101.0,103.0,101.0,13.4,1505.2,316.3,-0.7,1.8,2471.458,13.28,0.037,66.2
2023-05-08T01:13:03,42.805,6.029,0.013,0.013,-0.019,101.0,104.0,102.0,13.4,1505.2,327.8,-0.8,1.8,2471.452,13.28,0.018,45.0
2023-05-08T01:16:03,42.805,6.029,0.022,0.024,0.009,104.0,104.0,100.0,13.4,1505.2,321.6,-0.7,1.8,2471.416,13.28,0.032,42.5
2023-05-08T01:19:03,42.805,6.029,0.027,0.0,0.0,103.0,104.0,101.0,13.4,1505.2,326.3,-0.8,1.8,2471.387,13.29,0.026,90.0
2023-05-08T01:22:03,42.805,6.029,0.042,-0.004,-0.006,102.0,104.0,102.0,13.4,1505.2,344.8,-0.8,1.8,2471.426,13.29,0.042,95.4
2023-05-08T01:25:03,42.805,6.029,0.029,0.011,-0.027,103.0,102.0,102.0,13.4,1505.2,338.2,-0.8,1.8,2471.377,13.29,0.031,69.2
2023-05-08T01:28:03,42.805,6.029,0.041,0.008,-0.023,102.0,103.0,102.0,13.4,1505.2,316.8,-0.8,1.8,2471.389,13.29,0.041,79.0
2023-05-08T01:31:03,42.805,6.029,0.044,0.013,0.0,102.0,103.0,101.0,13.4,1505.2,329.5,-0.8,1.8,2471.376,13.29,0.045,73.5
2023-05-08T01:34:03,42.805,6.029,0.038,0.022,-0.018,101.0,102.0,102.0,13.4,1505.2,345.2,-0.8,1.8,2471.381,13.29,0.043,59.9
2023-05-08T01:37:03,42.805,6.029,0.042,0.012,0.012,102.0,105.0,102.0,13.4,1505.2,328.3,-0.8,1.8,2471.352,13.29,0.043,74.1
2023-05-08T01:40:03,42.805,6.029,0.034,-0.003,-0.026,101.0,105.0,102.0,13.4,1505.2,339.9,-0.8,1.8,2471.393,13.29,0.034,95.0
2023-05-08T01:43:03,42.805,6.029,0.012,0.023,-0.032,101.0,104.0,102.0,13.4,1505.2,325.4,-0.8,1.8,2471.398,13.29,0.025,27.6
2023-05-08T01:46:03,42.805,6.029,0.039,0.023,0.0,102.0,102.0,101.0,13.4,1505.2,340.1,-0.8,1.8,2471.36,13.29,0.045,59.5
2023-05-08T01:49:03,42.805,6.029,0.038,0.003,0.007,102.0,104.0,100.0,13.4,1505.2,324.4,-0.7,1.8,2471.359,13.29,0.038,85.5
2023-05-08T01:52:03,42.805,6.029,0.019,-0.007,-0.011,101.0,103.0,100.0,13.4,1505.2,343.7,-0.8,1.8,2471.366,13.29,0.02,110.2
2023-05-08T01:55:03,42.805,6.029,0.023,0.002,0.004,103.0,104.0,101.0,13.3,1505.2,343.4,-0.8,1.8,2471.388,13.29,0.023,85.0
2023-05-08T01:58:03,42.805,6.029,0.054,-0.003,0.0,103.0,104.0,100.0,13.4,1505.2,336.9,-0.8,1.8,2471.377,13.29,0.054,93.2
2023-05-08T02:04:03,42.805,6.029,0.058,0.004,0.016,103.0,102.0,101.0,13.4,1505.2,334.4,-0.8,1.8,2471.372,13.28,0.058,86.1
2023-05-08T02:07:03,42.805,6.029,0.048,-0.021,-0.018,102.0,103.0,101.0,13.4,1505.2,345.4,-0.8,1.8,2471.424,13.28,0.052,113.6
2023-05-08T02:10:03,42.805,6.029,0.047,0.006,-0.015,102.0,103.0,101.0,13.3,1505.2,327.1,-0.8,1.8,2471.394,13.28,0.047,82.7
2023-05-08T02:13:03,42.805,6.029,0.055,0.001,-0.01,101.0,103.0,100.0,13.4,1505.2,342.2,-0.8,1.8,2471.416,13.28,0.055,89.0
2023-05-08T02:16:03,42.805,6.029,0.036,0.004,-0.007,102.0,103.0,101.0,13.4,1505.2,315.6,-0.7,1.8,2471.399,13.28,0.036,83.7
2023-05-08T02:19:03,42.805,6.029,0.055,0.002,0.005,102.0,104.0,100.0,13.4,1505.2,344.6,-0.7,1.8,2471.382,13.28,0.055,87.9
2023-05-08T02:22:03,42.805,6.029,0.048,-0.009,0.026,101.0,104.0,101.0,13.4,1505.2,338.5,-0.7,1.8,2471.313,13.28,0.048,100.6
2023-05-08T02:25:03,42.805,6.029,0.037,-0.005,-0.009,102.0,103.0,99.0,13.4,1505.2,335.6,-0.8,1.8,2471.382,13.28,0.037,97.7
2023-05-08T02:28:03,42.805,6.029,0.042,0.002,0.001,101.0,103.0,101.0,13.3,1505.2,335.9,-0.8,1.8,2471.347,13.28,0.042,87.3
2023-05-08T02:31:03,42.805,6.029,0.035,0.003,-0.033,102.0,103.0,101.0,13.3,1505.2,342.5,-0.8,1.8,2471.341,13.28,0.035,85.1
2023-05-08T02:34:03,42.805,6.029,0.065,-0.015,-0.001,102.0,102.0,101.0,13.4,1505.2,333.9,-0.8,1.8,2471.37,13.29,0.066,103.0
2023-05-08T02:37:03,42.805,6.029,0.045,0.009,0.012,101.0,102.0,101.0,13.4,1505.2,327.8,-0.7,1.8,2471.348,13.29,0.045,78.7
2023-05-08T02:40:03,42.805,6.029,0.055,-0.002,0.011,101.0,103.0,100.0,13.3,1505.2,330.4,-0.8,1.8,2471.353,13.29,0.055,92.1
2023-05-08T02:43:03,42.805,6.029,0.044,-0.016,0.001,101.0,103.0,100.0,13.4,1505.2,342.2,-0.8,1.8,2471.328,13.29,0.046,110.0
2023-05-08T02:46:03,42.805,6.029,0.046,-0.003,-0.005,101.0,104.0,100.0,13.4,1505.2,337.9,-0.8,1.8,2471.337,13.29,0.046,93.7
2023-05-08T02:49:03,42.805,6.029,0.049,0.001,0.0,101.0,103.0,100.0,13.3,1505.2,333.4,-0.8,1.8,2471.378,13.29,0.049,88.8
2023-05-08T02:52:03,42.805,6.029,0.056,-0.009,0.016,102.0,103.0,100.0,13.4,1505.2,336.0,-0.7,1.8,2471.328,13.29,0.056,99.1
2023-05-08T02:55:03,42.805,6.029,0.038,-0.008,-0.01,102.0,102.0,100.0,13.4,1505.2,344.9,-0.8,1.8,2471.316,13.29,0.038,101.9
2023-05-08T02:58:03,42.805,6.029,0.026,0.003,-0.002,102.0,103.0,100.0,13.3,1505.2,331.3,-0.8,1.8,2471.369,13.29,0.026,83.4
2023-05-08T03:04:03,42.805,6.029,0.05,0.004,-0.024,102.0,105.0,101.0,13.3,1505.2,330.9,-0.8,1.8,2471.349,13.28,0.05,85.4
2023-05-08T03:07:03,42.805,6.029,0.04,0.007,0.009,101.0,103.0,100.0,13.4,1505.2,334.2,-0.8,1.8,2471.415,13.28,0.04,80.1
2023-05-08T03:10:03,42.805,6.029,0.051,0.004,-0.03,101.0,103.0,100.0,13.4,1505.2,325.4,-0.8,1.8,2471.344,13.28,0.051,85.5
2023-05-08T03:13:03,42.805,6.029,0.03,-0.007,-0.032,102.0,103.0,100.0,13.3,1505.2,333.0,-0.8,1.8,2471.37,13.28,0.03,103.1
2023-05-08T03:16:03,42.805,6.029,0.052,-0.013,-0.008,101.0,102.0,100.0,13.3,1505.2,337.5,-0.7,1.8,2471.338,13.28,0.053,104.0
2023-05-08T03:19:03,42.805,6.029,0.035,0.017,-0.006,102.0,102.0,100.0,13.3,1505.2,321.0,-0.7,1.8,2471.357,13.28,0.038,64.1
2023-05-08T03:22:03,42.805,6.029,0.031,0.02,0.01,102.0,103.0,99.0,13.3,1505.2,322.5,-0.7,1.8,2471.361,13.28,0.036,57.2
2023-05-08T03:25:03,42.805,6.029,0.051,-0.002,-0.011,101.0,102.0,100.0,13.4,1505.2,319.4,-0.8,1.8,2471.346,13.28,0.051,92.2
2023-05-08T03:28:03,42.805,6.029,0.037,-0.022,-0.012,102.0,102.0,99.0,13.4,1505.2,338.3,-0.7,1.8,2471.318,13.29,0.043,120.7
2023-05-08T03:31:03,42.805,6.029,0.072,-0.04,-0.006,102.0,102.0,100.0,13.3,1505.2,346.5,-0.8,1.8,2471.351,13.29,0.082,119.1
2023-05-08T03:34:03,42.805,6.029,0.029,0.003,-0.003,102.0,102.0,101.0,13.4,1505.2,325.4,-0.8,1.8,2471.343,13.29,0.029,84.1
2023-05-08T03:37:03,42.805,6.029,0.049,0.0,-0.028,101.0,103.0,100.0,13.4,1505.2,327.5,-0.8,1.8,2471.375,13.29,0.049,90.0
2023-05-08T03:40:03,42.805,6.029,0.035,0.011,0.0,103.0,103.0,101.0,13.3,1505.2,327.9,-0.7,1.8,2471.367,13.29,0.036,72.6
2023-05-08T03:43:03,42.805,6.029,0.06,0.0,-0.042,104.0,103.0,100.0,13.4,1505.2,330.2,-0.7,1.8,2471.35,13.29,0.06,90.0
2023-05-08T03:46:03,42.805,6.029,0.042,0.0,0.012,102.0,104.0,100.0,13.4,1505.2,327.1,-0.8,1.8,2471.339,13.29,0.042,90.0
2023-05-08T03:49:03,42.805,6.029,0.057,0.003,-0.019,102.0,103.0,101.0,13.4,1505.2,329.2,-0.8,1.8,2471.301,13.29,0.057,87.0
2023-05-08T03:52:03,42.805,6.029,0.053,0.008,0.011,101.0,102.0,101.0,13.3,1505.2,328.3,-0.8,1.8,2471.343,13.29,0.053,81.4
2023-05-08T03:55:03,42.805,6.029,0.029,0.011,0.0,101.0,103.0,101.0,13.4,1505.2,325.8,-0.7,1.9,2471.344,13.29,0.031,69.2
2023-05-08T03:58:03,42.805,6.029,0.053,-0.013,-0.023,103.0,102.0,101.0,13.4,1505.2,323.7,-0.7,1.8,2471.336,13.29,0.054,103.8
2023-05-08T04:04:03,42.805,6.029,0.038,-0.006,-0.01,102.0,103.0,100.0,13.4,1505.2,340.5,-0.7,1.8,2471.445,13.28,0.038,99.0
2023-05-08T04:07:03,42.805,6.029,0.065,-0.002,0.024,103.0,102.0,101.0,13.4,1505.2,320.8,-0.7,1.8,2471.369,13.28,0.065,91.8
2023-05-08T04:10:03,42.805,6.029,0.053,-0.01,-0.018,102.0,102.0,101.0,13.4,1505.2,338.6,-0.8,1.9,2471.364,13.28,0.053,100.7
2023-05-08T04:13:03,42.805,6.029,0.067,-0.005,-0.004,102.0,102.0,101.0,13.3,1505.2,322.7,-0.7,1.8,2471.356,13.28,0.067,94.3
2023-05-08T04:16:03,42.805,6.029,0.042,0.012,-0.023,102.0,102.0,101.0,13.3,1505.2,325.7,-0.8,1.8,2471.331,13.28,0.043,74.1
2023-05-08T04:19:03,42.805,6.029,0.033,-0.007,-0.03,101.0,102.0,100.0,13.4,1505.2,343.4,-0.7,1.8,2471.352,13.28,0.033,102.0
2023-05-08T04:22:03,42.805,6.029,0.036,-0.01,-0.023,102.0,103.0,100.0,13.4,1505.2,335.9,-0.8,1.8,2471.364,13.29,0.037,105.5
2023-05-08T04:25:03,42.805,6.029,0.052,-0.015,0.001,100.0,103.0,101.0,13.4,1505.2,344.9,-0.7,1.8,2471.366,13.29,0.054,106.1
2023-05-08T04:28:03,42.805,6.029,0.039,-0.004,-0.061,101.0,103.0,100.0,13.3,1505.2,327.1,-0.8,1.8,2471.387,13.28,0.039,95.9
2023-05-08T04:31:03,42.805,6.029,0.036,0.003,-0.023,101.0,103.0,101.0,13.4,1505.2,329.3,-0.7,1.8,2471.359,13.29,0.036,85.2
2023-05-08T04:34:03,42.805,6.029,0.045,-0.008,-0.008,102.0,102.0,101.0,13.4,1505.2,338.7,-0.7,1.8,2471.322,13.29,0.045,100.1
2023-05-08T04:37:03,42.805,6.029,0.039,-0.003,-0.001,100.0,102.0,100.0,13.4,1505.2,330.8,-0.7,1.8,2471.375,13.29,0.039,94.4
2023-05-08T04:40:03,42.805,6.029,0.039,0.0,-0.002,101.0,101.0,100.0,13.4,1505.2,333.4,-0.8,1.8,2471.338,13.29,0.039,90.0
2023-05-08T04:43:03,42.805,6.029,0.055,-0.003,-0.002,101.0,103.0,100.0,13.3,1505.2,338.3,-0.8,1.8,2471.345,13.29,0.055,93.1
2023-05-08T04:46:03,42.805,6.029,0.066,0.015,0.017,101.0,103.0,99.0,13.4,1505.2,327.7,-0.8,1.8,2471.326,13.29,0.067,77.2
2023-05-08T04:49:03,42.805,6.029,0.045,-0.016,-0.012,101.0,102.0,101.0,13.3,1505.2,345.4,-0.8,1.8,2471.336,13.29,0.047,109.6
2023-05-08T04:52:03,42.805,6.029,0.038,0.019,-0.006,101.0,102.0,100.0,13.3,1505.2,327.3,-0.8,1.9,2471.347,13.29,0.042,63.4
2023-05-08T04:55:03,42.805,6.029,0.027,0.0,-0.023,101.0,102.0,100.0,13.4,1505.2,326.5,-0.7,1.8,2471.377,13.29,0.026,90.0
2023-05-08T04:58:03,42.805,6.029,0.035,0.001,-0.019,102.0,101.0,101.0,13.4,1505.2,329.8,-0.8,1.8,2471.358,13.29,0.035,88.4
2023-05-08T05:04:03,42.805,6.029,0.046,-0.004,-0.022,102.0,101.0,101.0,13.4,1505.2,335.6,-0.7,1.8,2471.39,13.28,0.046,95.0
2023-05-08T05:07:03,42.805,6.029,0.042,0.024,0.01,102.0,101.0,100.0,13.4,1505.2,335.9,-0.8,1.8,2471.321,13.28,0.048,60.3
2023-05-08T05:10:03,42.805,6.029,0.054,-0.021,-0.01,102.0,101.0,101.0,13.3,1505.2,333.4,-0.7,1.8,2471.38,13.28,0.057,111.2
2023-05-08T05:13:03,42.805,6.029,0.039,0.016,0.019,103.0,102.0,100.0,13.4,1505.2,325.7,-0.7,1.8,2471.396,13.28,0.042,67.7
2023-05-08T05:16:03,42.805,6.029,0.04,0.005,0.0,101.0,102.0,101.0,13.3,1505.2,319.3,-0.7,1.8,2471.378,13.28,0.04,82.9
2023-05-08T05:19:03,42.805,6.029,0.041,-0.001,-0.028,102.0,102.0,100.0,13.4,1505.2,327.1,-0.8,1.8,2471.407,13.28,0.041,91.4
2023-05-08T05:22:03,42.805,6.029,0.045,0.021,-0.008,102.0,102.0,101.0,13.3,1505.2,319.8,-0.8,1.8,2471.382,13.29,0.049,65.0
2023-05-08T05:25:03,42.805,6.029,0.04,0.003,-0.017,101.0,102.0,102.0,13.3,1505.2,322.5,-0.8,1.8,2471.419,13.29,0.04,85.7
2023-05-08T05:28:04,42.805,6.029,0.033,-0.007,0.0,102.0,103.0,100.0,13.3,1505.2,338.4,-0.8,1.8,2471.402,13.29,0.033,102.0
2023-05-08T05:31:03,42.805,6.029,0.062,-0.009,0.011,103.0,104.0,100.0,13.3,1505.2,332.5,-0.8,1.8,2471.379,13.29,0.062,98.3
2023-05-08T05:34:03,42.805,6.029,0.038,0.007,-0.002,104.0,102.0,100.0,13.3,1505.2,330.9,-0.8,1.8,2471.365,13.29,0.038,79.6
2023-05-08T05:37:03,42.805,6.029,0.024,-0.015,-0.035,102.0,102.0,101.0,13.4,1505.2,342.6,-0.8,1.8,2471.372,13.29,0.028,122.0
2023-05-08T05:40:03,42.805,6.029,0.03,0.005,-0.025,101.0,103.0,100.0,13.3,1505.2,328.8,-0.7,1.8,2471.407,13.29,0.03,80.5
2023-05-08T05:43:03,42.805,6.029,0.039,-0.018,-0.036,101.0,101.0,102.0,13.4,1505.2,340.9,-0.8,1.8,2471.377,13.29,0.042,114.8
2023-05-08T05:46:03,42.805,6.029,0.033,0.013,-0.012,103.0,101.0,102.0,13.4,1505.2,317.6,-0.8,1.8,2471.391,13.29,0.035,68.5
2023-05-08T05:49:03,42.805,6.029,0.013,-0.004,-0.039,101.0,101.0,102.0,13.3,1505.2,326.0,-0.8,1.8,2471.349,13.29,0.013,107.1
2023-05-08T05:52:03,42.805,6.029,0.028,-0.002,-0.036,102.0,101.0,100.0,13.4,1505.2,315.0,-0.8,1.8,2471.38,13.29,0.028,94.1
2023-05-08T05:55:03,42.805,6.029,0.023,0.012,-0.049,102.0,102.0,100.0,13.4,1505.2,323.1,-0.7,1.8,2471.415,13.29,0.025,62.4
2023-05-08T05:58:03,42.805,6.029,0.052,0.0,-0.012,101.0,103.0,100.0,13.3,1505.2,329.4,-0.8,1.8,2471.429,13.29,0.052,90.0
2023-05-08T06:04:03,42.805,6.029,0.034,-0.004,-0.003,103.0,102.0,100.0,13.3,1505.2,327.7,-0.7,1.8,2471.455,13.28,0.034,96.7
2023-05-08T06:07:03,42.805,6.029,0.036,-0.01,-0.03,102.0,102.0,101.0,13.3,1505.2,325.5,-0.8,1.8,2471.44,13.28,0.037,105.5
2023-05-08T06:10:03,42.805,6.029,0.036,-0.009,-0.002,101.0,102.0,101.0,13.3,1505.2,337.0,-0.7,1.8,2471.452,13.28,0.037,104.0
2023-05-08T06:13:03,42.805,6.029,0.046,-0.036,-0.044,102.0,102.0,101.0,13.3,1505.2,335.4,-0.8,1.8,2471.414,13.28,0.058,128.0
2023-05-08T06:16:03,42.805,6.029,0.05,-0.001,-0.012,102.0,102.0,100.0,13.3,1505.2,323.6,-0.7,1.8,2471.437,13.28,0.05,91.1
2023-05-08T06:19:03,42.805,6.029,0.051,0.001,0.004,103.0,102.0,100.0,13.4,1505.2,331.9,-0.8,1.8,2471.406,13.28,0.051,88.9
2023-05-08T06:22:03,42.805,6.029,0.027,-0.005,-0.02,103.0,102.0,101.0,13.3,1505.2,321.3,-0.8,1.8,2471.436,13.29,0.027,100.5
2023-05-08T06:25:03,42.805,6.029,0.058,-0.009,-0.012,102.0,103.0,101.0,13.3,1505.2,338.2,-0.8,1.8,2471.413,13.29,0.058,98.8
2023-05-08T06:28:03,42.805,6.029,0.017,0.002,-0.042,101.0,102.0,100.0,13.4,1505.2,316.8,-0.8,1.8,2471.395,13.29,0.017,83.3
2023-05-08T06:31:03,42.805,6.029,0.035,-0.01,-0.019,100.0,102.0,101.0,13.4,1505.2,328.1,-0.8,1.8,2471.431,13.29,0.036,105.9
2023-05-08T06:34:03,42.805,6.029,0.042,-0.03,-0.027,102.0,103.0,101.0,13.4,1505.2,335.2,-0.7,1.8,2471.416,13.29,0.051,125.5
2023-05-08T06:37:03,42.805,6.029,0.055,-0.003,-0.005,102.0,102.0,101.0,13.3,1505.2,330.6,-0.8,1.8,2471.428,13.29,0.055,93.1
2023-05-08T06:40:03,42.805,6.029,0.043,0.002,-0.016,102.0,102.0,101.0,13.4,1505.2,330.6,-0.7,1.8,2471.403,13.29,0.043,87.3
2023-05-08T06:43:03,42.805,6.029,0.033,0.018,-0.03,101.0,103.0,100.0,13.4,1505.2,322.5,-0.8,1.8,2471.443,13.29,0.037,61.4
2023-05-08T06:46:03,42.805,6.029,0.046,-0.005,-0.016,103.0,101.0,101.0,13.4,1505.2,322.2,-0.8,1.8,2471.402,13.29,0.046,96.2
2023-05-08T06:49:03,42.805,6.029,0.038,-0.002,0.008,102.0,102.0,100.0,13.4,1505.2,342.2,-0.7,1.8,2471.427,13.29,0.038,93.0
2023-05-08T06:52:03,42.805,6.029,0.043,-0.002,-0.024,102.0,102.0,100.0,13.4,1505.2,323.8,-0.8,1.8,2471.413,13.29,0.043,92.7
2023-05-08T06:55:03,42.805,6.029,0.045,0.001,-0.008,103.0,100.0,101.0,13.4,1505.2,320.4,-0.7,1.8,2471.413,13.29,0.045,88.7
2023-05-08T06:58:03,42.805,6.029,0.067,-0.023,-0.028,102.0,101.0,101.0,13.4,1505.2,335.2,-0.8,1.8,2471.468,13.29,0.07,108.9
2023-05-08T07:04:03,42.805,6.029,0.045,-0.018,-0.023,103.0,101.0,100.0,13.3,1505.2,334.3,-0.7,1.8,2471.493,13.28,0.048,111.8
2023-05-08T07:07:03,42.805,6.029,0.059,-0.015,-0.01,103.0,103.0,100.0,13.3,1505.2,332.9,-0.8,1.8,2471.467,13.28,0.06,104.3
2023-05-08T07:10:03,42.805,6.029,0.04,-0.016,-0.03,102.0,102.0,100.0,13.4,1505.2,330.5,-0.8,1.8,2471.481,13.28,0.043,111.8
2023-05-08T07:13:03,42.805,6.029,0.04,-0.001,-0.039,102.0,103.0,100.0,13.4,1505.2,323.9,-0.8,1.8,2471.495,13.28,0.04,91.4
2023-05-08T07:16:03,42.805,6.029,0.048,0.006,-0.015,103.0,101.0,101.0,13.3,1505.2,319.6,-0.8,1.8,2471.458,13.28,0.048,82.9
2023-05-08T07:19:03,42.805,6.029,0.034,-0.009,-0.003,104.0,101.0,100.0,13.4,1505.2,342.3,-0.8,1.8,2471.454,13.28,0.035,104.8
2023-05-08T07:22:03,42.805,6.029,0.052,0.0,-0.002,103.0,102.0,101.0,13.3,1505.2,334.9,-0.8,1.8,2471.428,13.29,0.052,90.0
2023-05-08T07:25:03,42.805,6.029,0.026,-0.005,-0.038,102.0,103.0,102.0,13.4,1505.2,342.7,-0.8,1.8,2471.446,13.29,0.026,100.9
2023-05-08T07:28:03,42.805,6.029,0.033,-0.006,-0.042,103.0,102.0,102.0,13.4,1505.2,323.9,-0.8,1.8,2471.45,13.29,0.033,100.3
2023-05-08T07:31:03,42.805,6.029,0.037,-0.005,-0.027,103.0,102.0,101.0,13.4,1505.2,342.3,-0.8,1.8,2471.469,13.29,0.037,97.7
2023-05-08T07:34:03,42.805,6.029,0.017,0.003,-0.024,101.0,102.0,101.0,13.4,1505.2,328.0,-0.8,1.8,2471.455,13.29,0.017,80.0
2023-05-08T07:37:03,42.805,6.029,0.036,-0.007,-0.022,102.0,103.0,101.0,13.4,1505.2,325.2,-0.7,1.8,2471.47,13.29,0.036,101.0
2023-05-08T07:40:03,42.805,6.029,0.042,0.012,-0.006,101.0,102.0,101.0,13.4,1505.2,320.1,-0.8,1.9,2471.441,13.29,0.043,74.1
2023-05-08T07:43:03,42.805,6.029,0.021,-0.002,-0.011,102.0,101.0,101.0,13.4,1505.2,341.5,-0.7,1.8,2471.49,13.29,0.021,95.4
2023-05-08T07:46:03,42.805,6.029,0.031,-0.01,-0.036,102.0,102.0,101.0,13.4,1505.2,337.4,-0.7,1.8,2471.473,13.29,0.032,107.9
2023-05-08T07:49:03,42.805,6.029,0.031,0.017,-0.007,102.0,102.0,100.0,13.4,1505.2,316.3,-0.8,1.8,2471.486,13.29,0.035,61.3
2023-05-08T07:52:03,42.805,6.029,0.038,-0.009,-0.04,102.0,102.0,101.0,13.3,1505.2,326.3,-0.8,1.9,2471.428,13.29,0.039,103.3
2023-05-08T07:55:03,42.805,6.029,0.027,-0.015,-0.027,103.0,102.0,100.0,13.4,1505.2,336.5,-0.8,1.8,2471.477,13.29,0.03,119.1
2023-05-08T07:58:03,42.805,6.029,0.038,-0.001,-0.012,102.0,102.0,100.0,13.4,1505.2,331.7,-0.8,1.8,2471.464,13.29,0.038,91.5
2023-05-08T08:04:03,42.805,6.029,0.023,-0.01,-0.006,103.0,101.0,101.0,13.4,1505.2,343.2,-0.8,1.8,2471.533,13.28,0.025,113.5
2023-05-08T08:07:03,42.805,6.029,0.017,0.007,-0.02,102.0,101.0,102.0,13.4,1505.2,327.4,-0.8,1.8,2471.48,13.28,0.018,67.6
2023-05-08T08:10:03,42.805,6.029,0.023,0.008,-0.025,101.0,101.0,102.0,13.4,1505.2,326.0,-0.8,1.8,2471.501,13.28,0.024,70.8
2023-05-08T08:13:03,42.805,6.029,0.017,0.011,-0.013,102.0,102.0,100.0,13.3,1505.2,334.7,-0.8,1.8,2471.503,13.29,0.02,57.1
2023-05-08T08:16:03,42.805,6.029,0.026,0.007,-0.041,102.0,102.0,101.0,13.3,1505.2,324.4,-0.8,1.8,2471.486,13.29,0.026,74.9
2023-05-08T08:19:03,42.805,6.029,0.026,-0.012,-0.03,102.0,102.0,100.0,13.4,1505.2,329.4,-0.7,1.8,2471.552,13.29,0.028,114.8
2023-05-08T08:22:03,42.805,6.029,0.028,0.007,-0.017,104.0,102.0,100.0,13.4,1505.2,336.5,-0.8,1.8,2471.453,13.29,0.028,76.0
2023-05-08T08:25:03,42.805,6.029,0.027,-0.001,-0.016,103.0,102.0,101.0,13.4,1505.2,323.9,-0.8,1.8,2471.463,13.29,0.027,92.1
2023-05-08T08:28:03,42.805,6.029,0.036,0.025,0.028,103.0,102.0,100.0,13.3,1505.2,322.4,-0.8,1.8,2471.486,13.29,0.043,55.2
2023-05-08T08:31:03,42.805,6.029,0.018,-0.007,-0.023,101.0,103.0,101.0,13.4,1505.2,336.0,-0.8,1.8,2471.476,13.29,0.019,111.2
2023-05-08T08:34:03,42.805,6.029,0.038,-0.003,-0.03,102.0,102.0,101.0,13.4,1505.2,326.8,-0.7,1.8,2471.446,13.29,0.038,94.5
2023-05-08T08:37:03,42.805,6.029,0.019,0.02,-0.042,102.0,103.0,101.0,13.4,1505.2,326.0,-0.8,1.8,2471.467,13.29,0.027,43.5
2023-05-08T08:40:03,42.805,6.029,0.036,-0.009,-0.054,102.0,102.0,101.0,13.4,1505.2,324.8,-0.8,1.8,2471.471,13.29,0.037,104.0
2023-05-08T08:43:03,42.805,6.029,0.034,0.0,-0.013,101.0,101.0,101.0,13.4,1505.2,326.9,-0.8,1.8,2471.479,13.29,0.034,90.0
2023-05-08T08:46:03,42.805,6.029,0.024,0.008,-0.031,101.0,104.0,101.0,13.3,1505.2,331.8,-0.7,1.8,2471.448,13.29,0.025,71.6
2023-05-08T08:49:03,42.805,6.029,0.041,0.0,-0.016,102.0,101.0,100.0,13.4,1505.2,323.1,-0.7,1.8,2471.456,13.29,0.041,90.0
2023-05-08T08:52:03,42.805,6.029,0.012,0.006,-0.024,102.0,101.0,101.0,13.4,1505.2,343.4,-0.7,1.8,2471.472,13.29,0.013,63.4
2023-05-08T08:55:03,42.805,6.029,0.03,0.018,0.009,102.0,102.0,101.0,13.4,1505.2,332.4,-0.7,1.8,2471.501,13.29,0.034,59.0
2023-05-08T08:58:03,42.805,6.029,0.025,0.006,-0.028,102.0,101.0,101.0,13.3,1505.2,332.2,-0.8,1.8,2471.432,13.29,0.025,76.5
2023-05-08T09:04:03,42.805,6.029,0.019,0.003,-0.027,101.0,101.0,100.0,13.4,1505.2,340.5,-0.7,1.8,2471.512,13.28,0.019,81.0
2023-05-08T09:07:03,42.805,6.029,0.031,0.007,-0.015,102.0,101.0,101.0,13.4,1505.2,327.0,-0.8,1.8,2471.488,13.28,0.031,77.3
2023-05-08T09:10:03,42.805,6.029,0.027,-0.019,-0.023,103.0,100.0,100.0,13.4,1505.2,340.5,-0.8,1.8,2471.464,13.28,0.033,125.1
2023-05-08T09:13:03,42.805,6.029,0.017,0.012,0.002,102.0,102.0,102.0,13.3,1505.2,326.5,-0.7,1.8,2471.474,13.29,0.02,54.8
2023-05-08T09:16:03,42.805,6.029,0.011,0.022,0.002,102.0,103.0,101.0,13.3,1505.2,322.3,-0.8,1.8,2471.445,13.29,0.024,26.6
2023-05-08T09:19:03,42.805,6.029,0.021,0.012,0.01,102.0,101.0,101.0,13.3,1505.2,341.9,-0.8,1.8,2471.464,13.29,0.024,60.3
2023-05-08T09:22:03,42.805,6.029,0.022,0.0,-0.01,102.0,102.0,101.0,13.4,1505.2,336.9,-0.7,1.9,2471.419,13.29,0.022,90.0
2023-05-08T09:25:03,42.805,6.029,0.015,0.005,0.017,102.0,102.0,102.0,13.3,1505.2,331.8,-0.8,1.8,2471.406,13.29,0.015,71.6
2023-05-08T09:28:03,42.805,6.029,0.024,-0.001,-0.027,102.0,102.0,101.0,13.4,1505.2,322.1,-0.8,1.8,2471.461,13.29,0.024,92.4
2023-05-08T09:31:03,42.805,6.029,0.009,0.006,-0.02,101.0,103.0,101.0,13.4,1505.2,331.8,-0.7,1.8,2471.433,13.29,0.01,56.3
2023-05-08T09:34:03,42.805,6.029,0.03,0.001,-0.002,103.0,103.0,101.0,13.4,1505.2,322.7,-0.8,1.8,2471.425,13.29,0.03,88.1
2023-05-08T09:37:03,42.805,6.029,0.037,0.009,-0.025,102.0,101.0,101.0,13.4,1505.2,322.4,-0.7,1.8,2471.439,13.29,0.038,76.3
2023-05-08T09:40:03,42.805,6.029,0.015,0.019,-0.019,102.0,102.0,101.0,13.3,1505.2,326.8,-0.7,1.8,2471.406,13.29,0.024,38.3
2023-05-08T09:43:03,42.805,6.029,0.013,0.008,-0.022,103.0,102.0,101.0,13.4,1505.2,338.9,-0.8,1.8,2471.44,13.29,0.015,58.4
2023-05-08T09:46:03,42.805,6.029,0.034,-0.005,-0.045,101.0,102.0,102.0,13.3,1505.2,333.4,-0.8,1.8,2471.454,13.29,0.034,98.4
2023-05-08T09:49:03,42.805,6.029,0.039,-0.01,-0.028,102.0,102.0,101.0,13.4,1505.2,327.3,-0.8,1.8,2471.421,13.29,0.04,104.4
2023-05-08T09:52:03,42.805,6.029,0.033,0.013,0.005,102.0,103.0,101.0,13.4,1505.2,324.1,-0.8,1.8,2471.428,13.29,0.035,68.5
2023-05-08T09:55:03,42.805,6.029,0.023,0.007,-0.032,103.0,101.0,101.0,13.3,1505.2,328.2,-0.8,1.8,2471.423,13.29,0.024,73.1
2023-05-08T09:58:03,42.805,6.029,0.019,0.019,-0.029,101.0,103.0,102.0,13.3,1505.2,328.3,-0.8,1.8,2471.433,13.29,0.026,45.0
2023-05-08T10:01:03,42.805,6.029,0.027,-0.014,-0.007,102.0,102.0,100.0,13.4,1505.2,326.3,-0.8,1.8,2471.411,13.29,0.03,117.4